Location: Newark
(11.2914°S, 14.4718°E)
Time: 02:35:33
(UTC+00:00)

Hubble Space Telescope - Visible Passes

Search period start: 17 July 2019 00:00
Search period end: 27 July 2019 00:00
Orbit: 536 x 540 km, 28.5° (Epoch: 15 July)

Date Brightness Start Highest point End Pass type
(mag) Time Alt. Az. Time Alt. Az. Time Alt. Az.
17 Jul 1.0 03:58:40 50° WNW 03:59:16 55° NNW 04:03:19 10° NE visible
17 Jul 1.1 17:34:10 10° NW 17:38:12 54° NNE 17:41:15 17° ESE visible
17 Jul 3.7 19:15:51 10° W 19:16:36 14° WSW 19:16:36 14° WSW visible
18 Jul 1.6 03:48:54 38° NNW 03:48:54 38° NNW 03:52:35 10° NE visible
18 Jul 0.8 17:23:33 10° WNW 17:27:41 78° NNE 17:31:28 12° ESE visible
18 Jul 3.4 19:05:43 10° WSW 19:06:49 15° WSW 19:06:49 15° WSW visible
19 Jul 2.4 03:39:08 25° N 03:39:08 25° N 03:41:44 10° NNE visible
19 Jul 0.9 17:13:01 10° WNW 17:17:09 75° SSW 17:21:18 10° ESE visible
19 Jul 3.3 18:55:42 10° WSW 18:57:01 15° SW 18:57:01 15° SW visible
20 Jul 3.1 03:29:21 16° N 03:29:21 16° N 03:30:43 10° NNE visible
20 Jul 3.3 18:45:47 10° SW 18:47:12 14° SSW 18:47:12 14° SSW visible
21 Jul 3.3 18:36:03 10° SW 18:37:22 12° SSW 18:37:22 12° SSW visible
22 Jul 3.3 18:26:43 10° SSW 18:27:27 10° SSW 18:27:30 10° SSW visible
